[keps] orb07158.2l.amsat

Ray Hoad r.hoad at att.net
Thu Jun 7 20:13:13 PDT 2007


SB KEPS @ AMSAT  $ORB07158.N
2Line Orbital Elements 07158.AMSAT

HR AMSAT ORBITAL ELEMENTS FOR AMATEUR SATELLITES IN NASA FORMAT
FROM WA5QGD FORT WORTH,TX June 7, 2007
Send SUBSCRIBE KEPS/UNSUBSCRIBE KEPS to majordomo at amsat.org only
BID: ORB07158.N

DECODE 2-LINE ELSETS WITH THE FOLLOWING KEY:
1 AAAAAU 00  0  0 BBBBB.BBBBBBBB  .CCCCCCCC  00000-0  00000-0 0  DDDZ
2 AAAAA EEE.EEEE FFF.FFFF GGGGGGG HHH.HHHH III.IIII JJ.JJJJJJJJKKKKKZ
KEY: A-CATALOGNUM B-EPOCHTIME C-DECAY D-ELSETNUM E-INCLINATION F-RAAN
G-ECCENTRICITY H-ARGPERIGEE I-MNANOM J-MNMOTION K-ORBITNUM Z-CHECKSUM

TO ALL RADIO AMATEURS BT

AO-07
1 07530U 74089B   07157.76663597 -.00000028  00000-0  10000-3 0 08952
2 07530 101.5140 196.0812 0011675 276.6313 083.3430 12.53572511489817
AO-10
1 14129U 83058B   07157.37119196  .00000081  00000-0  10000-3 0  3850
2 14129 026.4906 273.3373 6062774 028.2830 354.2115 02.05868474180340
UO-11
1 14781U 84021B   07157.64057047  .00000301  00000-0  47550-4 0 03914
2 14781 098.1888 180.1394 0008583 198.6996 161.3902 14.79557604248175
RS-15
1 23439U 94085A   07159.02490033 -.00000039  00000-0  10597-3 0   360
2 23439 064.8197 021.7380 0159490 192.3968 167.3010 11.27551629512662
FO-29
1 24278U 96046B   07158.96043187  .00000034  00000-0  67380-4 0  5190
2 24278 098.5516 119.8472 0351314 107.1417 256.8501 13.52930630533650
SO-33
1 25509U 98061B   07157.77933150 -.00000205  00000-0 -53128-4 0 09475
2 25509 031.4348 284.5927 0354826 336.2651 022.1958 14.28167098449760
AO-40
1 26609U 00072B   07157.19066388 -.00000132  00000-0  10000-3 0  8869
2 26609 005.5164 141.9709 7986288 325.3603 002.2128 01.25588014 30302
VO-52
1 28650U 05017B   07157.84171694  .00000555  00000-0  77495-4 0 06464
2 28650 097.8321 228.7905 0026055 288.1140 071.7238 14.81323286112884
PO-63
1 29712U 07001D   07158.98077783  .00000673  00000-0  96347-4 0  4320
2 29712 097.9214 218.2677 0014833 153.8092 206.3868 14.79714061 21977
AO-16
1 20439U 90005D   07158.51643828  .00000007  00000-0  17938-4 0   529
2 20439 098.1946 153.6057 0010003 213.3366 146.7200 14.31761707907162
LO-19
1 20442U 90005G   07158.55651749 -.00000029  00000-0  44304-5 0  9799
2 20442 098.1788 163.0085 0011067 211.3852 148.6673 14.32002023907317
AO-27
1 22825U 93061C   07158.81687681 -.00000092  00000-0 -19740-4 0  7024
2 22825 098.3298 129.1065 0007782 295.8086 064.2312 14.29209506714150
IO-26
1 22826U 93061D   07157.46587300  .00000002  00000-0  16856-4 0 03998
2 22826 098.3232 128.8908 0008268 297.0386 062.9946 14.29456163714047
PO-28
1 22829U 93061G   07157.84689390  .00000050  00000-0  35224-4 0 06777
2 22829 098.3119 130.4229 0008765 265.2777 094.7406 14.30156464714331
GO-32
1 25397U 98043D   07159.02011992  .00000088  00000-0  57200-4 0  3196
2 25397 098.4140 206.6348 0000503 209.7265 150.3879 14.23126853462855
MO-46
1 26548U 00057D   07157.66528889  .00000062  00000-0  25496-4 0  8132
2 26548 064.5554 215.2152 0016810 198.2312 161.8207 14.83146409361977
NO-44
1 26931U 01043C   07157.52350113 -.00000234  00000-0 -59191-4 0 06064
2 26931 067.0505 174.9585 0007594 266.4315 093.5913 14.29485509296573
SO-50
1 27607U 02058C   07157.85946915  .00000018  00000-0  24770-4 0 03306
2 27607 064.5577 116.3907 0052814 002.8516 357.2871 14.71263045239603
CO-55
1 27844U 03031E   07157.60931911  .00000059  00000-0  47904-4 0   445
2 27844 098.7184 166.0563 0010893 118.6643 241.5626 14.20514916203971
CO-57
1 27848U 03031J   07158.54433354  .00000027  00000-0  32973-4 0    53
2 27848 098.7170 166.1769 0010412 118.3347 241.8896 14.20333457204088
AO-51
1 28375U 04025K   07158.70514332  .00000033  00000-0  22680-4 0  8326
2 28375 098.1126 198.5120 0082982 211.0671 148.5600 14.40569942154342
CO-56
1 28941U 06005C   07158.90097286  .00009353  25185-5  10247-3 0  4647
2 28941 098.1290 218.9621 0224796 306.1358 051.9250 15.39744303 72000
HO-59
1 29484U 06041F   07158.68817615  .00020371  27493-5  14488-3 0  3907
2 29484 098.2831 207.0197 0207478 300.1754 057.9073 15.50894284 39609
NO-60
1 29661U 06055C   07150.05824307  .13324117  12618-4  10400-3 0  3000
2 29661 051.6186 176.5045 0007204 190.7749 188.7342 16.52052832 25544
NO-61
1 29664U 06055F   07158.44186841  .00026405  11397-4  91787-4 0  1912
2 29664 051.6311 143.7681 0011919 316.2020 043.8047 15.91003443 26601
CP4
1 31122U 07012F   07158.83601831  .00000598  00000-0  14251-3 0   539
2 31122 098.0860 232.4172 0086710 055.3363 305.5958 14.55009172  7499
CP3
1 31128U 07012M   07158.74163740 -.00000047  00000-0  00000 0 0   462
2 31128 098.0818 232.0678 0103841 055.4269 305.6678 14.51838476  7455
LIBERT
1 31129U 07012N   07158.73865352  .00000386  00000-0  10000-3 0  1337
2 31129 098.0823 232.0678 0103565 055.4841 305.6076 14.51927975  7434
NOAA-10
1 16969U 86073A   07157.92818182  .00000012  00000-0  23227-4 0 06848
2 16969 098.7444 175.1047 0011919 193.8794 166.2050 14.27326576077766
NOAA-11
1 19531U 88089A   07157.80665270  .00000134  00000-0  92094-4 0 06809
2 19531 098.8118 247.0983 0012423 062.8927 297.3533 14.14846590964682
NOAA-12
1 21263U 91032A   07157.84498910  .00000045  00000-0  37685-4 0 01772
2 21263 098.7514 155.1035 0013592 134.4849 225.7415 14.25531763834775
MET-3/5
1 21655U 91056A   07157.91648880  .00000051  00000-0  10000-3 0 02920
2 21655 082.5536 010.1998 0012011 233.2543 126.7476 13.17011795760051
MET-2/21
1 22782U 93055A   07157.81101436  .00000050  00000-0  32363-4 0  8431
2 22782 082.5487 050.1484 0020832 265.8062 094.0729 13.83616954695088
OKEAN-4
1 23317U 94066A   07157.92097757  .00000225  00000-0  25049-4 0 02836
2 23317 082.5391 306.1112 0020573 288.4854 071.4137 14.82508129682533
NOAA-14
1 23455U 94089A   07157.81715306  .00000067  00000-0  59170-4 0 06604
2 23455 098.9886 223.9466 0010350 127.0149 233.1987 14.13720257641178
SICH-1
1 23657U 95046A   07157.88709865  .00000098  00000-0  94859-5 0 00862
2 23657 082.5286 087.0872 0022194 278.9211 080.9482 14.81488949634501
NOAA-15
1 25338U 98030A   07157.84753755 -.00000008  00000-0  14760-4 0 00223
2 25338 098.5291 154.8220 0011652 062.5702 297.6655 14.24645137471218
RESURS
1 25394U 98043A   07159.00464220  .00000008  00000-0  21842-4 0  6588
2 25394 098.4411 213.8980 0000686 182.9892 177.1283 14.24137780463045
FENGYUN1
1 25730U 99025A   07158.89539778  .00000530  00000-0  33861-3 0  1364
2 25730 098.6861 143.1146 0021411 150.8776 209.3603 14.07514606416165
OKEAN-0
1 25860U 99039A   07157.57028855  .00000044  00000-0  13927-4 0   705
2 25860 097.7296 160.3157 0001968 062.5367 297.6037 14.73456071423932
NOAA-16
1 26536U 00055A   07157.84725647  .00000366  00000-0  22317-3 0 04364
2 26536 099.1150 134.6091 0010267 198.0728 162.0097 14.12432053345646
NOAA-17
1 27453U 02032A   07157.83766630 -.00000005  00000-0  16364-4 0 04464
2 27453 098.5793 227.3871 0012849 122.9114 237.3287 14.23883843257244
NOAA-18
1 28654U 05018A   07157.82983356  .00000226  00000-0  15011-3 0 09804
2 28654 098.8280 099.2870 0013560 300.4978 059.4878 14.11069097105390
HUBBLE
1 20580U 90037B   07158.62808700  .00000397  00000-0  17957-4 0  8919
2 20580 028.4689 252.4549 0003364 357.7226 002.3346 15.00248379738525
UARS
1 21701U 91063B   07157.94973059  .00006086  00000-0  10348-3 0 01010
2 21701 056.9742 358.3665 0094641 168.8090 191.5103 15.48129965864163
PO-34
1 25520U 98064B   07157.45187800  .00000512  00000-0  15526-4 0 07566
2 25520 028.4598 180.5976 0005770 139.9031 220.1992 15.17004452475890
ISS
1 25544U 98067A   07159.00953410  .00006993  00000-0  43719-4 0  3487
2 25544 051.6320 151.3322 0007764 292.5063 166.1574 15.78206851489326
OO-38
1 26063U 00004C   07157.57738099 -.00000017  00000-0  14656-4 0  9286
2 26063 100.2269 158.2402 0036622 189.0766 170.9745 14.35807105385527
UWE-1
1 28892U 05043C   07157.72247779  .00000093  00000-0  29350-4 0 07663
2 28892 098.1313 054.5741 0017917 141.8632 218.3841 14.59509500085684
CO-58
1 28895U 05043F   07157.70148748  .00000142  00000-0  39599-4 0 07458
2 28895 098.1355 054.7621 0018280 141.7163 218.5374 14.59556797085564
NCUBE2
1 28897U 05043H   07158.66857282  .00000131  00000-0  37160-4 0  2710
2 28897 098.1329 055.6672 0017545 140.8961 219.3518 14.59719410 77981
NMARS
1 29662U 06055D   07126.39603970  .07031946  12599-4  11450-3 0  2632
2 29662 051.6121 302.3682 0004459 252.1654 110.7411 16.47981436 21652
FCAL
1 29667U 06055J   07157.44153876  .00014762  11116-4  65658-4 0 01848
2 29667 051.6319 150.6346 0013550 309.0462 050.9342 15.87820248026297
FALCON
1 30776U 07006E   07157.68982770  .00000270  00000-0  22910-4 0 00801
2 30776 035.4347 276.2994 0001794 348.9874 011.0803 15.02716037013474
MAST
1 31126U 07012K   07157.72449841  .00000395  00000-0  10000-3 0 00534
2 31126 098.0827 231.2075 0095752 058.4629 302.5849 14.53344554007333
CAPE1
1 31130U 07012P   07157.91401091  .00000096  00000-0  33006-4 0 00423
2 31130 098.0848 231.2731 0103825 058.1507 302.9730 14.51856857007125
/EX






More information about the Keps mailing list